This is the latest recevied weather packets stored in our database for station/object K1WJY. If no packets are shown the sender has not sent any weather packets the latest 10 day(s).
| Time | Temp. | Humidity | Pressure | Rain* | Wind** | Luminosity | Snow |
|---|---|---|---|---|---|---|---|
| 1787944498 | 23.89° C | 94% | 1017 hPa | 0 mm | - | 145 W/m² | - |
| 1787944193 | 23.89° C | 93% | 1017.2 hPa | 0 mm | - | 116 W/m² | - |
| 1787943893 | 23.89° C | 92% | 1017.1 hPa | 0 mm | - | 135 W/m² | - |
| 1787943588 | 23.89° C | 91% | 1017.2 hPa | 0 mm | - | 234 W/m² | - |
| 1787943283 | 23.89° C | 91% | 1017.2 hPa | 0 mm | - | 477 W/m² | - |
| 1787942978 | 23.89° C | 92% | 1017.3 hPa | 0 mm | - | 200 W/m² | - |
| 1787942674 | 23.89° C | 92% | 1017.1 hPa | 0 mm | - | 347 W/m² | - |
| 1787942373 | 23.33° C | 93% | 1017.4 hPa | 0 mm | - | 339 W/m² | - |
| 1787942068 | 23.33° C | 94% | 1017.4 hPa | 0 mm | - | 341 W/m² | - |
| 1787941764 | 22.78° C | 95% | 1017.3 hPa | 0 mm | - | 316 W/m² | - |
| 1787941462 | 22.78° C | 95% | 1017.5 hPa | 0 mm | - | 205 W/m² | - |
| 1787941161 | 22.78° C | 95% | 1017.7 hPa | 0 mm | - | 191 W/m² | - |
| 1787940856 | 22.78° C | 95% | 1017.7 hPa | 0 mm | - | 166 W/m² | - |
| 1787940554 | 22.78° C | 96% | 1017.7 hPa | 0 mm | - | 151 W/m² | - |
| 1787940248 | 22.78° C | 96% | 1017.7 hPa | 0 mm | - | 180 W/m² | - |
| 1787939943 | 22.78° C | 97% | 1017.8 hPa | 0 mm | - | 180 W/m² | - |
| 1787939642 | 22.78° C | 96% | 1018.1 hPa | 0 mm | - | 163 W/m² | - |
| 1787939337 | 22.78° C | 97% | 1018 hPa | 0 mm | - | 144 W/m² | - |
| 1787939032 | 22.78° C | 98% | 1018.4 hPa | 0 mm | - | 156 W/m² | - |
| 1787938730 | 22.22° C | 98% | 1018.2 hPa | 0 mm | - | 136 W/m² | - |
| 1787938428 | 22.22° C | 98% | 1018.3 hPa | 0 mm | - | 91 W/m² | - |
| 1787938123 | 22.78° C | 99% | 1018.5 hPa | 0 mm | - | 75 W/m² | - |
| 1787937818 | 22.78° C | 99% | 1018.4 hPa | 0 mm | - | 91 W/m² | - |
| 1787937514 | 22.78° C | 99% | 1018.2 hPa | 0 mm | - | 121 W/m² | - |
| 1787937211 | 22.78° C | 99% | 1018.1 hPa | 0 mm | - | 123 W/m² | - |
* Rain latest hour (hover to see other rain measurements)
** Current wind speed in m/s (hover to see current wind gust speed)